RH
62 65 68 67 73 82 86 86 84 83 84 78 71 73 80 78 69 72 84 84 83 88 82 77 84 83 79 87 91 90 96 97 89 82 83 88 87 76 66 65 64 62 62 61 59 59 58 57 57 57 57 58 57 61 69 75 84 95 98 92 88 88 82 73 70 71 73 77 77 72 66 65 64 60 57 54 48 44 43 43 45 47 48 50 50 49 48
61 62 64 69 76 81 87 92 94 93 91 85 82 85 88 87 82 82 90 91 88 93 91 82 86 95 96 96 97 98 100 100 95 89 89 93 91 79 71 73 70 63 61 59 57 59 59 55 54 53 54 58 58 61 68 75 82 90 97 96 90 87 87 84 79 73 73 78 81 76 69 67 67 66 64 60 53 47 45 45 48 50 50 51 50 49 49
62 63 65 72 76 76 84 94 96 96 95 91 93 96 96 96 95 95 99 97 92 94 97 95 96 100 100 97 96 97 98 96 93 94 96 98 97 87 78 77 75 68 64 63 61 60 57 53 52 51 53 56 59 63 68 74 80 85 90 95 94 89 86 86 85 79 75 81 85 82 74 69 71 72 70 65 58 51 49 52 54 54 52 52 50 51 51
63 66 68 74 79 77 80 89 93 94 90 84 87 92 95 98 99 99 100 100 99 98 99 100 100 100 100 99 98 97 97 96 98 100 99 97 95 90 82 80 79 75 70 67 65 62 59 56 53 52 54 56 61 69 74 76 79 81 86 94 98 94 87 83 83 83 82 84 87 86 78 72 73 76 74 69 61 54 55 59 60 57 54 52 52 53 54
63 71 69 72 79 81 86 94 98 100 95 88 87 89 90 94 98 99 98 98 99 101 100 100 100 99 100 100 99 99 98 97 97 96 94 95 93 90 87 85 83 80 76 71 66 62 61 60 57 57 57 58 64 71 74 79 82 81 84 93 97 96 92 89 87 85 84 87 91 89 79 70 73 80 78 68 60 58 59 61 62 60 56 54 55 60 62
62 67 62 65 81 91 97 100 99 99 100 96 95 95 94 97 99 98 98 98 99 100 99 99 100 99 100 100 99 100 99 95 93 94 96 96 91 88 92 92 86 83 81 74 69 66 64 61 61 62 63 65 70 73 72 80 87 84 82 88 94 96 97 97 94 88 85 88 93 89 77 70 74 80 77 67 64 69 68 64 66 66 62 60 62 67 71
61 64 60 71 91 99 99 100 99 100 100 95 96 100 99 99 100 99 99 100 99 100 98 97 99 100 100 100 98 98 99 95 94 98 98 95 91 91 96 95 88 86 85 81 77 73 68 63 63 66 68 70 75 77 76 81 88 88 84 85 87 93 99 100 94 90 90 93 95 90 81 77 79 79 75 70 72 79 78 71 72 76 74 72 73 76 78
63 70 74 87 100 101 98 99 99 100 99 95 97 101 99 100 100 99 100 99 99 100 99 97 99 99 100 100 99 98 97 94 97 101 99 98 98 95 96 96 91 87 86 84 83 78 70 68 73 77 76 76 79 81 79 80 81 80 81 86 89 91 99 101 96 95 96 97 100 97 89 86 86 84 80 77 78 84 83 75 75 79 80 78 80 84 84
71 82 90 96 99 99 100 100 98 99 100 98 99 99 99 100 100 99 100 100 100 101 100 99 100 99 100 100 99 100 99 97 100 100 97 97 95 90 92 93 87 85 88 89 89 85 78 79 85 86 81 78 80 81 81 81 79 73 72 81 89 92 97 100 100 99 99 99 100 99 94 91 92 91 89 88 88 89 85 78 79 82 82 82 85 88 89
77 87 96 99 98 99 99 98 98 100 100 99 100 98 97 98 96 94 95 98 99 100 100 100 100 99 100 100 99 100 100 99 101 100 98 97 93 90 92 90 86 90 97 98 96 92 90 92 93 88 82 80 79 80 81 80 79 78 77 79 85 90 95 100 101 101 100 100 100 99 94 90 90 93 97 97 95 92 86 83 84 84 85 90 93 92 93
69 76 88 93 96 99 98 97 98 100 100 100 100 98 97 95 91 87 87 92 98 100 100 100 100 100 100 100 99 100 100 100 100 100 100 100 98 98 98 95 95 99 100 98 98 97 98 99 96 91 88 84 79 80 82 81 80 84 86 86 89 93 95 98 100 99 99 99 99 99 97 94 93 96 99 99 97 93 89 87 86 85 89 96 99 98 98
63 71 87 95 98 99 98 98 99 99 100 99 98 99 98 92 86 83 84 91 97 100 100 100 100 100 99 99 100 100 100 100 100 99 100 100 100 100 100 99 100 100 99 99 100 99 99 100 97 94 91 87 83 83 86 86 86 88 90 92 97 97 95 96 98 98 98 97 97 100 100 98 98 99 97 97 98 97 94 94 94 95 97 99 98 99 99
68 75 90 99 100 99 99 100 99 97 99 99 97 97 94 88 84 84 89 96 100 100 100 100 100 99 99 99 100 100 100 100 100 100 100 100 100 100 100 100 100 100 100 100 99 100 100 100 99 96 93 90 89 87 88 88 90 91 93 96 99 98 96 95 95 96 97 97 97 100 101 99 98 98 98 99 99 99 99 100 99 99 99 98 96 97 96
78 82 91 97 99 99 99 101 98 93 95 97 93 89 87 85 85 88 94 100 100 99 99 100 100 100 99 99 100 100 100 100 100 100 99 99 100 100 99 100 100 100 100 100 100 101 99 99 100 99 97 97 94 91 91 90 90 93 97 99 100 99 99 98 96 95 95 96 96 98 98 99 99 99 99 100 100 100 100 99 96 95 96 96 96 96 96
86 84 89 96 98 96 94 95 95 93 91 90 87 84 85 85 86 90 96 99 99 100 100 100 99 99 99 100 100 99 100 100 100 100 100 100 100 100 100 100 100 100 100 100 100 100 99 99 100 98 97 97 96 97 97 94 94 97 100 100 100 100 100 100 99 98 97 96 98 98 99 99 100 99 100 100 100 99 97 96 96 96 97 99 98 98 99
85 88 95 99 99 95 92 91 93 92 88 84 81 82 83 84 84 87 89 90 91 95 98 99 100 100 99 100 100 99 100 100 100 100 100 99 100 100 99 100 100 100 100 100 100 100 100 100 100 98 96 94 93 94 95 94 95 97 98 99 100 100 100 100 100 100 99 99 99 99 99 100 100 100 100 100 100 99 97 95 94 94 95 97 98 99 99
84 94 100 100 98 97 94 91 89 87 85 82 82 82 80 78 80 81 81 82 86 93 98 99 99 100 100 100 100 100 100 100 100 100 100 100 100 100 100 100 100 100 100 100 100 100 100 100 100 99 98 94 91 89 88 87 88 89 89 91 93 94 97 99 99 100 100 100 99 99 98 98 99 99 99 99 99 100 99 98 96 95 95 96 98 100 99
89 97 100 100 99 97 92 88 87 86 85 84 84 81 75 72 75 78 81 85 90 96 99 99 99 100 100 100 100 100 100 100 100 100 99 98 97 97 98 98 97 97 97 96 96 96 96 96 97 98 98 96 93 89 87 86 84 83 84 84 83 84 86 89 92 94 96 98 99 100 99 98 98 99 99 99 100 99 99 100 100 98 97 96 98 99 99
91 97 100 100 97 93 87 86 87 86 85 83 79 73 68 69 75 82 89 95 98 100 100 100 100 100 99 100 100 100 99 100 99 97 96 95 93 92 91 91 89 88 88 88 87 87 87 86 87 90 92 93 91 89 88 87 85 83 83 83 83 82 80 80 81 83 85 89 92 94 96 97 97 98 98 97 97 97 96 96 95 94 92 91 92 93 93
91 97 99 96 91 87 83 81 83 81 79 77 74 71 74 80 86 92 96 98 99 99 99 100 100 100 100 100 100 100 99 98 96 93 90 89 88 86 84 83 82 81 80 80 79 78 78 77 76 76 78 79 81 82 81 81 81 80 80 81 82 82 81 81 81 80 80 82 84 86 87 88 88 89 90 90 90 90 90 90 89 89 88 86 85 85 85
94 98 94 85 79 81 79 74 75 75 72 71 71 73 81 90 95 98 100 101 101 99 98 96 94 94 95 93 89 88 88 87 87 86 81 75 72 71 69 66 65 66 67 68 68 66 66 65 63 62 63 64 65 65 63 62 64 66 68 70 71 72 74 75 77 79 80 80 80 81 82 82 82 82 81 81 81 81 81 82 82 82 83 82 80 78 74
93 97 92 78 68 73 77 70 66 66 62 59 60 61 64 71 77 81 83 86 87 87 85 79 71 67 70 72 66 56 50 53 59 60 56 51 50 49 49 47 47 49 52 55 56 54 51 49 47 46 47 47 48 49 47 44 43 44 49 54 57 60 63 64 64 67 69 72 73 74 74 76 78 79 79 78 78 78 77 76 75 75 74 74 73 71 68
98 99 90 72 57 61 71 68 62 61 58 56 59 62 61 61 60 58 57 58 60 62 62 60 55 47 42 43 46 40 31 33 40 40 39 42 41 38 39 40 38 35 35 38 40 38 37 38 38 35 32 31 31 33 33 32 30 28 30 36 43 48 50 51 53 56 57 60 64 66 68 69 71 72 74 75 74 74 75 74 72 71 69 66 63 60 56
97 96 83 69 63 72 83 84 78 77 77 76 78 79 75 68 59 50 48 51 53 53 55 60 65 61 50 45 52 53 42 40 48 49 47 48 46 42 41 39 32 26 25 25 25 24 23 24 26 25 23 20 19 19 20 21 21 19 18 21 28 35 38 40 46 51 52 53 55 59 62 65 67 68 70 71 70 69 68 67 66 64 62 60 56 50 44
90 94 83 76 77 80 82 82 82 84 84 79 76 77 80 81 77 69 67 72 74 74 77 79 78 75 71 68 67 58 43 41 51 52 46 43 40 38 36 33 28 26 26 25 24 22 21 21 23 24 23 21 17 15 14 14 14 15 15 15 18 25 30 34 40 46 48 48 49 49 50 52 53 54 56 58 58 57 54 54 53 51 48 45 42 39 34
80 86 84 84 88 86 79 77 84 93 90 77 70 74 81 90 93 87 85 88 88 87 90 87 72 62 62 62 57 48 42 43 46 42 36 33 32 31 31 29 28 28 27 26 25 24 24 24 24 25 28 28 24 19 16 14 14 14 13 14 15 18 20 25 31 37 40 39 38 37 36 36 36 35 34 35 35 35 35 33 32 32 30 28 24 22 20
81 83 83 88 98 100 91 82 84 91 90 82 79 81 85 89 90 85 82 84 81 76 75 73 65 59 56 53 48 44 44 45 42 36 34 33 31 30 30 28 28 28 27 26 25 24 24 23 22 22 25 27 27 23 18 16 17 18 15 14 14 16 18 19 22 27 31 32 30 27 27 27 26 25 24 23 21 21 21 20 19 18 18 16 15 15 14
97 92 85 84 91 95 91 86 87 89 86 83 83 83 85 87 86 83 83 84 80 77 75 70 68 69 65 58 53 52 51 49 40 33 33 34 31 29 29 27 27 27 26 26 26 24 24 23 22 21 22 22 23 24 23 20 20 20 17 15 13 16 20 21 20 20 23 25 25 23 23 24 24 23 22 21 20 19 19 19 19 18 16 15 15 16 17
92 82 70 66 69 72 73 78 84 85 84 84 84 83 85 86 81 80 84 85 85 89 89 80 74 75 74 69 66 65 67 62 49 38 37 37 32 30 28 26 25 26 25 26 26 25 25 24 22 21 22 22 22 24 27 29 27 22 19 20 21 22 26 27 23 19 19 22 23 23 22 23 24 24 22 21 21 21 20 20 20 19 18 18 19 20 20
79 73 67 68 70 69 69 72 77 82 84 84 83 82 85 87 83 83 87 89 90 96 98 91 83 77 72 69 66 63 64 61 51 44 45 43 36 33 31 27 26 26 25 25 26 25 25 26 25 24 26 29 31 31 32 37 39 31 22 22 28 36 44 46 39 30 24 22 22 23 24 25 25 25 25 24 22 22 21 21 19 18 19 21 21 20 20
74 74 78 80 78 76 76 76 77 79 80 82 84 85 86 86 86 89 91 89 87 90 94 95 88 73 61 61 62 58 58 57 50 46 49 47 40 36 33 29 29 29 27 26 26 26 26 26 26 25 25 28 35 38 37 39 44 40 28 24 34 53 66 69 65 57 46 36 28 25 26 29 29 29 27 25 23 22 21 19 19 19 19 21 21 20 19
75 77 79 78 75 74 77 80 82 82 81 82 87 90 88 82 78 82 86 81 75 74 74 76 74 64 54 54 55 51 52 56 54 51 52 50 45 40 37 34 33 33 31 29 28 27 27 27 25 24 24 26 31 36 39 41 44 42 34 30 42 63 77 80 80 76 68 57 49 42 35 32 31 32 29 24 22 21 18 18 20 20 20 21 21 20 20
75 75 75 73 74 74 75 78 83 84 81 78 75 75 79 78 74 74 75 69 61 57 54 52 55 56 53 52 52 50 53 58 58 57 57 56 52 46 40 38 38 37 35 33 32 30 30 28 24 24 27 27 26 31 40 42 40 38 36 35 48 70 87 90 86 83 77 70 65 60 51 40 35 32 29 24 22 20 17 17 20 22 22 23 23 22 22
76 77 72 70 75 79 76 76 78 79 82 85 78 71 76 82 76 67 63 59 54 50 46 44 47 49 46 44 45 48 53 56 55 53 54 54 51 47 44 42 43 43 40 37 35 35 34 30 26 26 26 22 21 29 39 41 39 38 37 39 55 80 95 93 85 79 75 70 67 65 58 49 41 36 31 23 20 19 17 18 20 21 20 21 22 23 24
73 77 74 73 83 87 78 71 73 78 86 91 83 72 78 87 75 56 49 51 49 43 37 37 40 41 40 39 41 44 48 51 51 51 52 51 49 47 47 48 48 47 44 41 39 39 36 32 28 27 22 18 24 38 47 44 41 40 39 46 67 89 98 97 94 87 75 67 67 69 63 51 40 34 29 24 21 21 20 20 21 22 21 20 20 22 25
63 66 65 65 77 84 73 64 68 76 81 81 75 71 80 87 75 55 46 44 40 34 32 34 37 38 38 38 38 39 42 46 50 52 53 53 52 51 52 52 51 49 48 46 44 42 37 32 29 26 18 14 28 52 62 54 47 47 52 63 79 87 86 90 96 93 79 70 71 73 69 56 41 31 26 23 23 22 22 24 25 25 24 23 23 24 26
54 58 57 56 65 73 68 63 64 66 65 66 70 72 72 66 57 48 41 35 31 32 35 37 36 36 36 37 37 38 41 46 51 53 53 53 54 55 57 57 52 49 50 53 50 45 39 33 28 21 11 9 26 55 71 68 60 58 62 70 80 86 88 92 95 91 83 77 74 71 69 62 51 39 29 24 23 23 25 27 28 26 25 25 25 25 26
42 42 44 47 52 57 60 59 56 54 55 65 78 80 68 53 43 39 35 32 32 34 35 35 34 35 37 38 37 38 41 45 48 48 51 54 55 55 58 60 56 52 54 56 54 50 46 40 30 17 7 7 24 51 73 80 74 66 63 66 73 81 88 91 90 87 84 79 72 65 64 65 63 51 36 26 25 28 29 29 28 28 27 26 25 24 24
44 41 41 40 39 45 55 58 55 53 55 62 73 74 63 51 46 41 37 37 37 35 33 33 33 32 33 35 34 34 37 41 43 44 50 57 59 58 60 61 57 54 55 59 61 62 59 49 33 17 6 6 19 40 64 80 83 76 69 66 65 69 75 80 83 86 90 90 81 68 61 63 66 61 46 32 29 31 33 33 31 30 28 26 26 27 29
65 59 50 42 41 52 68 75 77 77 70 61 63 67 58 47 45 46 44 44 43 39 36 34 31 28 29 32 34 37 41 44 46 47 51 58 63 66 66 63 59 57 60 66 70 71 64 51 34 17 6 7 16 30 47 64 76 81 81 76 68 65 69 77 84 92 98 99 91 75 63 61 66 67 58 43 33 32 35 35 34 32 29 28 30 34 37
78 67 55 48 51 64 74 77 79 82 77 69 74 79 66 46 38 42 46 47 46 43 39 36 33 31 29 29 34 42 48 51 54 55 58 63 70 73 73 72 72 71 69 67 66 64 60 51 37 19 7 6 12 19 26 35 44 55 69 81 82 76 72 75 84 94 100 100 92 79 68 63 64 68 67 55 40 35 38 38 35 33 31 32 37 42 40
70 66 58 52 54 65 74 70 66 72 81 88 90 86 71 54 47 48 48 46 42 39 37 37 36 35 32 31 34 39 45 50 56 60 61 65 72 76 76 78 82 84 80 72 64 58 54 50 40 24 11 7 8 10 12 16 18 22 32 49 67 79 84 87 91 96 99 99 95 91 85 77 68 67 69 60 45 39 41 41 37 34 33 36 42 45 42
65 58 51 50 57 67 74 71 66 70 79 83 79 72 67 62 56 47 39 36 35 36 38 41 41 38 36 36 37 38 42 50 60 65 65 65 69 74 76 78 82 87 86 79 68 58 53 50 46 34 19 9 7 10 11 12 14 15 14 18 29 44 56 66 78 90 97 97 95 96 96 89 76 69 68 62 48 41 42 42 38 35 34 38 44 48 47
60 49 46 52 58 56 55 61 72 77 72 63 58 58 59 54 43 33 31 36 41 42 42 43 42 38 35 34 37 43 50 58 66 74 75 74 75 80 83 83 83 83 82 76 69 61 55 53 53 49 34 16 6 8 11 11 12 15 17 16 19 24 28 37 56 79 95 101 101 101 101 94 84 77 76 69 55 45 44 43 40 37 37 39 44 49 52
58 53 53 57 54 46 47 61 74 74 63 51 47 47 44 39 37 40 45 49 48 45 41 39 37 36 37 39 44 51 56 60 66 73 76 76 79 84 87 88 87 84 81 77 72 66 60 56 55 55 48 30 11 6 10 11 10 11 14 15 18 25 33 39 46 55 65 75 82 89 97 100 94 88 85 78 64 51 46 44 42 41 42 43 45 50 53
59 56 55 54 53 54 57 58 54 46 40 38 42 46 46 45 47 52 54 49 42 37 35 36 37 41 45 49 54 59 61 62 66 70 71 72 75 76 77 81 86 86 83 80 74 68 64 61 56 53 51 40 20 7 7 11 10 10 12 13 14 19 28 36 38 39 44 53 61 73 90 100 98 91 87 81 68 55 49 47 45 45 45 45 46 48 49
58 54 57 69 82 85 76 61 50 48 50 53 58 64 62 53 45 42 40 37 35 35 39 44 48 50 49 49 52 55 56 58 65 69 69 72 76 74 71 77 87 87 82 80 77 72 69 65 54 47 49 47 32 15 8 9 10 9 10 11 12 13 16 21 25 27 32 42 53 67 84 97 98 93 91 86 75 62 54 51 49 48 48 47 45 44 42
53 49 53 71 88 88 75 62 63 72 80 83 84 80 68 53 41 37 36 36 38 41 45 48 49 48 45 45 47 47 45 52 66 74 74 77 82 79 74 78 86 86 79 75 74 72 70 65 52 41 41 48 47 35 20 10 9 11 11 10 11 12 12 15 18 18 20 28 38 51 67 83 93 95 94 90 82 73 64 58 55 51 48 47 47 45 42
52 51 53 63 74 76 72 71 78 87 92 91 86 76 61 49 42 40 40 41 44 44 42 41 42 43 44 45 44 39 36 45 61 72 75 80 86 84 76 73 75 75 73 72 72 71 67 60 50 41 39 44 52 54 41 22 11 10 10 10 10 12 12 13 15 16 16 21 28 39 53 69 84 94 97 95 90 83 76 70 65 59 50 46 47 48 45
59 66 70 78 87 92 91 87 85 85 83 78 72 65 59 54 51 48 44 42 45 46 46 45 46 47 45 41 38 34 32 36 46 57 66 79 88 86 76 69 72 78 80 78 76 73 67 57 49 48 49 50 52 56 54 45 35 28 21 16 13 11 11 11 13 14 14 15 19 30 44 59 74 88 97 99 95 89 81 75 72 65 53 45 45 48 48
69 82 91 94 95 96 92 84 79 76 73 67 60 58 59 61 59 54 47 41 42 50 57 58 56 51 45 38 35 34 32 32 34 40 53 70 83 81 71 70 80 92 94 89 82 77 70 61 54 55 61 62 59 56 55 55 54 51 46 39 31 24 19 14 12 13 14 15 15 20 29 41 53 66 76 81 81 77 71 68 69 67 56 45 40 43 46
72 84 90 88 83 80 80 83 84 84 77 65 54 54 63 68 65 58 52 47 45 48 54 55 53 48 42 38 36 36 35 35 35 35 42 56 67 67 66 76 91 100 99 95 89 81 74 69 67 67 68 68 66 63 60 57 54 52 50 50 48 46 41 33 23 15 12 13 14 16 20 25 28 33 40 47 53 54 51 49 52 52 45 36 33 34 37
Wind_Speed
1 3 3 3 1 4 2 3 2 3 1 2 1 5 7 5 5 7 13 17 16 16 16 14 13 12 10 7 5 5 5 9 11 10 9 9 9 9 9 9 9 8 7 7 8 9 11 12 13 13 12 9 8 11 14 17 19 19 18 18 19 21 22 22 20 18 20 24 26 30 36 38 37 37 35 32 30 30 28 25 23 21 20 21 20 17 15
2 4 4 4 6 7 9 10 9 6 4 3 4 8 9 7 7 12 19 21 18 16 15 14 13 11 8 6 5 5 6 9 11 11 10 9 9 9 9 8 8 8 8 8 8 10 12 13 14 14 14 12 10 10 13 15 18 19 18 17 20 23 25 26 26 24 24 27 29 32 37 39 37 36 35 33 32 31 29 26 24 24 23 22 21 18 16
4 5 5 5 6 5 8 13 12 7 5 6 7 8 9 10 11 11 15 18 17 14 13 12 11 9 8 7 4 5 8 9 9 9 8 7 9 9 8 8 8 8 8 8 9 11 12 13 14 15 15 14 13 12 12 13 16 19 19 20 22 25 27 28 28 27 28 31 33 35 37 39 37 36 35 35 34 32 29 27 26 27 26 24 21 20 18
4 5 6 6 5 4 5 9 11 7 2 4 5 5 6 7 9 9 11 12 9 7 8 9 9 9 8 6 4 4 6 7 6 5 6 8 9 9 8 8 8 8 8 9 10 11 12 14 14 15 15 15 14 13 12 12 12 16 20 22 23 25 27 28 29 29 30 33 36 38 40 39 38 37 38 37 35 32 30 29 30 30 28 26 23 21 19
5 5 6 6 5 3 3 8 10 6 3 3 2 2 4 4 6 8 10 8 5 4 5 5 6 7 7 6 5 5 5 5 6 6 7 9 9 8 9 9 9 9 9 10 11 11 11 13 14 14 14 16 16 14 13 13 11 13 19 23 23 25 29 31 30 30 31 33 37 39 43 43 40 38 39 38 36 34 33 33 34 32 29 27 25 22 19
4 3 3 4 3 2 4 4 3 2 1 1 1 2 4 5 6 6 6 5 3 3 3 3 4 6 7 7 6 6 5 5 6 7 7 7 8 8 8 8 10 12 11 12 13 12 12 13 13 14 14 15 16 15 15 14 12 12 15 21 23 24 28 32 34 33 32 34 37 39 42 43 41 40 41 41 38 36 36 36 34 32 29 27 25 22 20
2 2 1 2 3 4 6 5 3 3 3 1 2 5 7 7 6 5 4 3 2 2 3 3 4 6 8 8 6 6 6 6 7 7 6 6 7 8 8 8 10 13 13 14 14 13 13 14 14 14 13 14 16 16 16 14 11 12 13 14 17 22 27 30 33 33 32 33 36 39 41 40 39 40 42 43 41 38 38 38 35 31 28 26 25 23 22
1 2 2 4 7 8 7 6 6 5 3 1 3 7 8 7 5 5 5 5 4 4 5 5 6 8 8 5 5 6 7 8 9 8 7 6 6 7 9 9 11 12 13 14 14 13 14 14 14 14 14 15 15 15 15 13 10 10 11 9 9 14 24 33 33 31 33 36 37 38 40 39 40 41 41 41 41 39 38 38 36 32 30 27 26 25 26
4 8 10 11 12 9 5 6 6 5 4 3 4 6 6 4 2 3 5 7 7 6 6 5 6 7 7 4 4 6 6 7 9 9 9 8 7 8 9 9 11 13 12 12 13 14 15 14 13 13 13 14 14 14 13 12 10 10 10 7 5 4 16 33 40 36 34 37 38 38 40 40 39 39 38 38 38 38 39 39 36 33 31 29 27 27 28
7 11 11 9 7 4 4 7 6 5 5 5 6 5 5 4 2 2 4 6 6 6 6 6 7 8 7 7 7 8 7 7 8 9 10 10 9 9 8 8 11 12 11 10 11 13 15 14 13 13 14 13 13 12 11 10 9 8 9 8 6 4 7 23 35 37 35 37 39 40 41 42 41 38 36 37 37 37 38 39 37 35 33 30 29 29 28
7 8 7 3 2 3 6 7 6 5 6 6 6 4 3 2 1 3 5 6 6 6 6 7 8 9 9 10 10 8 8 8 8 8 8 8 7 6 6 7 10 10 9 9 10 12 14 13 13 13 13 12 12 12 10 10 9 7 9 9 4 6 8 17 27 30 31 33 38 45 48 45 43 41 38 37 38 37 36 38 39 38 35 31 30 30 29
5 7 8 5 3 5 7 8 7 7 8 8 6 3 1 2 3 4 6 7 6 5 6 8 9 9 10 12 12 11 11 11 11 10 10 9 7 5 5 8 10 11 11 8 8 9 11 12 12 12 11 10 10 10 9 9 10 8 8 8 4 2 9 16 18 23 25 22 23 36 47 44 40 40 38 37 37 36 35 36 37 35 33 31 31 31 30
6 9 11 9 6 6 9 9 9 9 10 8 5 2 1 2 3 3 1 4 5 4 4 7 8 7 8 10 12 13 12 11 11 10 9 9 8 7 7 9 10 11 11 9 7 6 7 8 8 8 8 5 4 5 6 6 7 8 9 5 3 2 2 9 12 16 20 16 14 27 38 38 34 34 34 33 34 34 33 34 35 32 29 29 30 30 30
7 11 13 11 6 5 8 9 10 9 7 6 5 4 3 2 4 6 5 3 2 2 3 4 4 3 4 6 8 9 7 6 7 6 6 5 6 6 7 9 9 9 8 7 5 3 2 2 2 3 2 1 2 2 3 5 6 8 10 8 3 1 0 3 6 7 11 13 11 18 28 32 30 29 30 31 33 33 31 31 32 32 30 29 28 28 27
10 12 12 8 3 3 5 7 8 7 6 6 7 7 6 5 6 8 8 7 5 3 2 2 1 1 0 4 6 5 4 4 3 2 2 3 3 2 3 5 6 5 5 5 5 4 3 3 3 2 2 1 4 5 5 5 8 10 9 9 7 5 2 2 4 4 3 5 7 11 17 23 25 26 27 28 30 31 31 30 28 27 26 26 24 22 21
8 9 9 6 4 6 7 8 9 11 10 10 10 9 8 9 10 10 10 9 10 9 7 5 3 2 2 4 4 4 3 3 2 2 1 2 3 2 1 1 3 4 4 3 4 4 4 3 3 2 0 1 2 3 4 5 7 7 7 7 7 7 5 4 3 3 4 5 6 7 9 12 16 17 18 19 20 22 25 26 24 22 21 21 20 18 17
12 14 15 14 12 13 14 14 13 13 13 12 12 11 11 13 15 14 13 13 14 14 11 8 6 3 1 1 1 1 1 2 2 2 1 2 2 2 2 2 2 2 4 4 3 3 2 2 1 2 1 0 1 2 3 3 3 3 3 4 4 5 5 5 5 5 5 5 6 7 8 10 10 10 10 10 11 12 15 17 18 19 19 19 19 18 16
22 21 18 17 16 15 15 15 13 12 12 13 13 12 13 16 17 17 16 17 17 16 13 10 8 5 4 3 3 3 4 4 4 4 4 4 4 4 4 4 4 4 4 3 3 2 2 1 1 1 1 1 1 1 2 2 2 2 2 2 2 2 3 3 3 4 4 5 6 7 7 8 9 9 10 10 9 10 12 13 13 15 15 15 15 14 12
23 21 17 16 16 15 14 14 14 14 14 13 13 13 14 16 16 17 17 17 16 14 12 10 8 7 7 7 7 6 6 6 6 6 5 5 6 7 7 7 7 7 8 7 6 6 5 5 4 4 3 2 2 2 2 1 1 1 1 1 2 2 2 2 1 1 0 0 2 3 4 5 6 6 7 7 7 8 9 10 11 12 12 11 11 10 9
22 20 15 15 16 16 14 13 14 13 13 12 12 12 14 14 15 15 15 14 13 11 10 9 8 8 7 7 6 5 4 5 5 5 4 5 6 7 7 8 9 9 9 9 9 8 8 8 7 7 6 5 4 3 3 3 3 3 3 3 3 2 2 1 1 2 2 1 1 1 2 3 3 4 4 5 5 6 6 7 8 9 9 9 9 8 8
23 18 12 10 13 15 13 12 12 12 12 11 11 12 14 13 13 12 12 12 11 9 8 8 7 7 6 6 5 4 4 3 3 3 4 5 6 7 8 8 8 9 9 9 10 9 8 8 8 7 7 7 7 6 6 5 5 4 4 4 4 4 4 3 3 3 3 3 3 3 3 4 4 4 5 5 5 6 6 7 8 8 9 9 9 9 9
19 14 9 6 9 14 14 11 11 12 11 10 11 12 12 12 11 10 9 8 8 7 7 7 7 6 6 6 6 7 8 7 5 4 5 7 8 8 9 9 9 9 9 9 10 11 10 9 9 9 8 8 8 7 7 7 6 5 5 4 4 4 4 4 4 4 4 5 5 5 5 5 6 6 6 6 7 7 7 7 8 9 9 9 10 11 11
17 11 7 4 6 12 15 12 12 13 12 12 12 12 12 12 11 10 9 8 7 7 8 8 9 8 8 8 9 11 13 12 10 9 10 11 12 12 12 13 12 11 10 10 10 11 11 11 11 11 11 10 10 10 9 8 7 6 6 5 5 5 6 6 5 6 6 6 6 6 6 6 6 6 7 7 8 8 8 9 9 10 10 10 11 12 13
15 9 6 7 10 14 14 12 12 12 12 12 12 12 12 11 11 12 13 13 12 12 12 12 12 11 11 12 13 13 12 11 11 12 12 12 14 15 15 14 13 12 12 11 11 11 10 10 10 12 13 13 13 13 13 12 10 8 8 7 7 7 8 7 6 6 7 7 7 8 8 7 7 7 8 8 9 9 10 10 11 11 12 12 12 13 14
14 11 9 11 12 12 12 10 10 10 10 10 9 9 10 11 12 13 14 14 14 14 13 12 9 8 8 9 10 11 11 11 12 12 12 13 15 15 14 13 12 12 12 12 12 13 12 11 10 11 12 13 13 13 14 14 13 11 9 9 9 8 9 8 6 5 6 7 8 9 9 8 8 9 10 10 11 11 12 12 13 14 14 14 14 15 15
14 13 11 12 12 11 11 11 11 11 10 9 9 10 11 10 10 10 11 11 11 11 9 6 6 8 7 5 7 9 11 13 13 13 14 16 16 15 13 13 12 12 12 13 13 14 13 13 12 11 11 12 13 13 12 12 12 13 11 10 11 11 11 10 7 5 6 7 8 9 9 8 8 9 10 11 12 12 13 14 15 15 15 15 16 16 16
13 11 10 11 13 12 10 11 13 13 11 10 11 11 12 12 11 10 11 11 11 10 9 8 8 11 11 9 9 11 12 13 13 14 16 17 16 16 16 15 14 13 13 13 13 13 13 13 13 13 13 14 14 14 13 11 9 11 12 12 12 12 11 12 11 8 7 8 9 10 11 11 10 10 10 12 12 12 13 14 14 14 14 14 14 14 15
11 8 6 7 11 12 11 12 14 13 10 9 9 9 10 11 11 10 10 9 9 9 11 11 10 10 10 10 10 12 13 13 13 15 16 15 16 16 16 16 15 15 14 14 14 14 13 14 14 14 14 15 15 15 15 14 11 9 11 12 12 11 9 11 12 11 9 9 9 10 11 12 11 10 11 12 12 12 13 13 13 13 13 12 11 11 12
8 4 5 7 10 11 12 12 13 12 10 9 7 7 7 8 8 8 7 7 8 9 10 10 9 8 8 8 8 9 9 10 13 15 16 15 15 15 15 15 15 15 15 15 15 14 13 13 14 14 14 15 15 14 15 16 15 12 10 10 10 9 7 8 11 12 11 9 9 9 11 12 11 11 11 12 12 12 12 13 13 12 11 9 7 9 11
6 5 9 13 14 13 12 12 12 11 10 9 7 5 5 5 6 6 6 6 6 7 8 9 9 8 6 5 6 7 7 8 12 14 14 13 14 14 14 14 14 14 15 15 14 15 14 13 13 12 12 12 13 13 13 14 16 15 12 9 9 9 6 6 9 11 11 10 10 10 11 12 12 12 11 11 12 11 11 12 13 11 9 7 7 9 12
7 9 12 13 13 11 9 9 9 9 8 7 5 5 4 4 3 1 1 2 2 3 5 7 9 9 7 5 6 8 8 9 12 13 12 12 13 13 13 14 14 14 14 14 15 15 15 14 13 11 10 11 12 12 12 12 14 15 13 8 7 7 6 5 6 8 10 10 11 11 11 11 11 11 11 11 12 11 10 10 13 12 9 7 8 10 11
9 12 12 10 8 6 5 4 5 4 4 4 4 5 5 4 5 6 6 6 6 6 7 8 9 9 7 7 9 10 10 11 12 13 12 13 13 13 13 13 14 14 15 15 16 16 15 14 14 13 12 12 12 12 12 11 13 15 13 8 6 6 5 5 6 7 9 10 11 12 12 11 10 10 10 11 12 11 10 10 11 11 9 8 9 10 11
10 13 12 9 7 5 4 3 2 0 1 3 4 5 4 3 3 4 5 5 5 4 5 5 5 7 7 8 10 11 11 12 13 13 12 12 12 12 12 12 13 14 15 16 17 16 15 15 15 15 15 15 14 14 13 11 12 13 11 6 7 6 4 4 5 7 9 11 12 13 14 13 11 10 11 11 11 11 11 10 10 11 10 10 11 12 12
11 13 12 12 12 10 8 7 5 2 3 4 4 1 1 3 6 6 4 3 3 4 6 6 7 8 9 9 10 10 11 11 12 12 12 12 11 12 12 12 12 13 15 17 16 15 15 15 16 16 17 17 16 15 13 11 11 11 8 5 6 4 3 5 6 8 9 11 12 12 13 14 13 11 11 10 10 11 11 10 10 11 12 12 12 12 13
12 13 11 12 14 12 9 8 8 8 7 7 6 2 1 4 8 6 2 1 3 5 6 6 7 9 10 10 11 11 11 11 12 11 11 12 12 12 12 13 13 13 15 17 16 14 13 15 16 17 17 17 17 15 12 10 9 8 4 4 4 3 3 5 7 9 10 10 10 10 11 12 13 11 10 9 9 10 10 10 10 11 12 12 12 12 13
11 11 11 12 15 15 11 10 11 12 12 11 8 4 4 6 9 7 3 2 3 5 7 8 8 10 10 11 11 11 11 11 12 12 12 12 13 12 12 13 14 13 15 16 15 12 12 15 16 17 18 17 15 13 10 9 8 5 2 3 3 3 5 6 7 9 11 10 10 10 10 11 12 11 10 9 9 9 10 10 9 10 12 12 11 12 13
10 8 7 9 13 14 13 11 10 10 10 8 5 4 6 8 7 5 4 4 4 4 6 8 9 10 10 11 11 11 12 11 12 12 12 12 12 12 12 13 14 14 14 14 12 11 12 15 17 17 17 16 14 12 9 7 7 5 4 4 3 3 4 6 7 8 10 11 10 10 11 11 12 12 10 9 9 9 9 9 9 10 11 11 11 11 13
12 9 6 7 9 10 11 10 9 7 6 6 5 6 8 7 5 3 4 5 4 4 6 8 9 10 11 11 11 12 12 12 12 13 13 12 12 12 12 12 13 13 13 12 12 12 14 16 17 17 17 15 13 11 9 8 6 6 6 6 6 6 5 5 6 8 10 11 11 11 11 11 12 11 10 8 8 8 8 9 9 9 10 11 11 11 11
9 7 6 7 7 5 5 4 3 3 4 5 6 7 7 6 3 4 5 5 5 6 7 8 10 11 11 12 13 13 13 13 14 14 13 13 13 12 11 11 13 13 12 11 12 14 16 17 17 18 18 16 12 10 10 9 8 7 7 7 8 9 8 7 7 8 10 11 13 13 12 11 11 12 11 9 8 8 9 9 9 10 10 10 11 10 10
4 3 3 5 4 2 2 2 1 2 3 3 4 5 6 5 4 4 5 5 6 7 7 8 9 10 11 12 13 14 14 14 15 15 14 14 13 12 11 11 13 13 12 11 12 14 16 17 18 18 18 16 12 10 10 9 10 10 9 8 8 9 10 10 9 9 9 10 12 13 12 11 11 12 12 11 10 9 9 9 9 10 11 10 10 9 9
5 4 2 3 4 3 3 3 4 4 4 4 3 5 7 6 4 3 4 5 7 8 8 8 9 10 11 12 13 13 13 14 14 14 14 13 12 12 11 12 14 13 12 12 13 13 15 16 17 16 16 15 13 11 10 10 10 11 10 7 7 9 11 11 11 10 8 8 11 13 13 12 11 11 12 12 12 11 10 10 10 10 11 10 9 8 7
5 4 2 2 3 4 2 2 2 2 2 4 6 8 8 6 3 3 4 6 8 8 9 9 9 10 11 11 12 12 13 13 14 14 15 14 13 12 12 13 14 13 11 11 12 13 14 15 16 15 15 15 15 13 12 11 10 11 10 8 8 10 11 11 11 9 8 9 13 15 14 11 11 11 12 12 11 11 10 10 10 10 10 9 8 7 7
5 4 3 2 3 4 3 4 3 2 3 6 8 9 8 7 6 6 7 8 8 8 8 8 9 10 11 12 12 12 13 13 14 15 15 16 16 15 15 17 17 15 11 10 12 13 13 14 15 15 16 16 15 14 13 12 11 11 10 10 10 11 13 13 11 10 9 10 13 14 14 13 13 14 13 10 9 9 9 9 10 10 9 8 7 6 6
5 4 3 3 3 3 4 4 3 4 6 8 8 8 8 8 8 8 7 7 7 8 8 9 10 10 11 12 12 12 12 13 13 14 15 16 16 16 16 17 17 14 11 11 13 14 14 14 14 15 15 15 15 14 12 12 11 10 10 10 10 11 12 12 10 9 9 9 10 13 15 15 15 16 16 12 8 8 8 8 9 9 8 7 6 5 5
5 4 3 3 3 3 4 5 5 6 8 8 8 9 9 7 7 6 6 7 8 8 9 10 10 10 11 11 11 12 13 13 14 15 15 15 15 15 15 15 14 12 11 12 13 14 14 15 15 15 14 14 13 13 11 10 10 10 9 9 9 9 9 9 8 7 8 10 11 14 16 16 15 16 17 14 9 7 7 7 8 8 8 7 6 5 4
5 4 2 2 1 1 3 5 5 5 5 5 6 7 7 6 5 6 7 7 8 9 10 10 10 10 11 10 11 12 13 14 14 14 15 15 14 14 13 13 12 9 9 10 12 14 14 15 15 15 14 12 12 11 11 10 9 9 9 9 9 8 7 7 8 7 6 7 10 12 14 14 15 16 16 13 9 5 4 6 7 7 7 7 6 5 4
5 3 1 2 1 2 6 6 5 3 3 3 4 6 7 8 7 6 6 7 8 9 9 9 9 10 11 11 10 10 11 13 14 14 14 14 14 12 11 10 9 8 9 11 13 14 14 15 15 14 13 12 11 10 10 10 9 9 9 9 9 8 7 8 9 10 8 6 6 8 10 12 13 14 14 13 11 7 5 5 6 7 7 6 5 5 4
6 4 3 4 4 6 8 6 2 2 2 3 4 6 9 9 8 6 6 7 8 8 8 8 8 9 11 12 11 11 11 12 13 13 14 14 14 13 10 8 8 9 11 13 14 13 13 15 16 15 13 12 11 10 10 10 9 9 9 9 9 9 8 7 9 11 10 8 6 6 8 10 11 12 13 13 11 8 6 6 6 7 7 6 5 5 4
5 4 4 4 3 3 4 2 1 2 4 7 9 10 11 9 7 6 6 7 8 8 8 8 9 9 10 11 12 13 13 12 12 13 15 15 14 11 10 10 11 12 12 14 14 14 14 14 15 15 14 13 12 11 10 10 10 9 9 9 9 8 8 7 9 11 11 9 7 6 7 8 9 10 12 12 11 9 7 7 6 6 7 7 6 6 5
4 3 2 1 1 1 4 6 6 8 11 12 12 12 10 8 6 5 5 7 9 9 9 8 9 9 9 9 11 12 13 13 12 13 14 14 13 12 13 15 17 16 15 14 15 15 15 14 14 14 14 13 12 10 9 10 10 11 10 9 8 8 8 8 9 10 11 10 8 6 7 8 8 9 10 12 12 11 10 9 8 7 7 6 7 7 6
4 4 5 6 6 6 8 10 10 10 10 11 11 10 8 7 7 6 6 7 9 10 9 9 10 10 10 10 11 12 13 14 14 14 13 13 13 15 16 17 18 18 18 17 15 14 14 14 14 12 12 13 13 11 10 9 10 11 11 11 10 10 9 9 9 9 10 10 9 7 7 8 9 9 10 11 11 11 10 10 9 9 8 7 8 9 8
5 7 9 9 9 8 8 8 9 10 10 11 9 7 6 7 8 8 8 8 9 10 9 10 10 11 11 12 12 12 13 14 15 14 13 13 13 15 16 16 16 17 19 17 15 13 13 13 13 12 12 13 14 13 11 10 10 11 11 11 11 11 10 10 10 10 10 10 10 9 9 9 10 9 9 9 9 9 9 10 10 10 9 8 9 10 10
Wind_Direction
268 246 273 314 216 163 106 68 118 163 206 278 206 117 120 157 182 169 177 184 185 188 204 225 241 250 257 268 276 280 287 294 303 312 318 322 327 331 334 336 332 327 327 331 337 345 353 357 358 358 352 329 284 261 253 246 241 235 234 236 228 214 207 205 202 205 215 219 215 204 197 197 198 195 193 195 197 199 198 195 194 196 195 196 199 200 202
210 208 210 210 189 155 116 94 89 105 120 125 134 126 130 150 157 164 177 184 186 190 203 222 238 251 262 267 257 244 251 271 290 306 318 323 325 332 338 332 329 334 339 344 353 0 2 1 359 357 353 343 320 285 262 250 246 241 233 231 230 222 216 210 203 201 209 216 217 209 202 200 200 196 195 197 200 203 202 199 198 202 204 205 205 205 210
183 179 172 185 207 188 130 110 98 101 115 116 121 123 130 140 138 155 184 189 183 189 207 225 240 253 270 289 287 254 259 274 292 307 316 317 320 332 339 331 328 337 342 348 358 2 0 358 356 355 351 342 332 315 291 268 253 245 235 227 229 228 225 219 211 204 205 210 214 212 206 202 201 199 198 200 203 205 204 203 205 207 208 210 210 211 215
154 171 178 175 179 175 133 91 71 65 91 118 125 125 129 141 139 155 191 194 177 187 218 232 241 246 258 283 290 278 289 294 290 292 301 308 316 332 340 338 337 339 341 346 353 355 355 355 354 353 350 343 338 332 320 302 271 251 238 229 228 229 227 224 220 214 209 206 209 211 207 202 200 200 201 202 204 206 206 208 211 211 210 212 215 217 220
140 166 200 190 170 154 72 47 48 51 44 46 77 122 128 150 153 158 181 189 178 196 228 238 242 241 246 260 261 264 283 286 281 288 303 311 322 335 338 339 340 338 335 337 342 348 353 354 353 351 347 343 340 337 334 325 303 269 246 234 232 233 228 222 220 219 214 207 206 206 204 202 200 200 202 203 204 207 211 214 216 215 213 214 219 223 225
142 158 203 180 152 102 81 72 66 87 66 28 240 145 119 136 146 149 167 184 189 214 252 263 251 243 247 255 259 256 257 273 287 294 300 307 317 323 325 332 335 332 331 333 336 344 350 350 351 349 344 341 339 336 335 332 325 308 273 245 237 239 233 222 216 216 214 209 206 205 204 203 200 199 203 205 207 211 214 216 219 219 217 217 223 229 229
142 144 163 142 118 112 125 136 123 100 87 77 137 124 122 138 150 155 177 197 204 238 279 267 244 242 244 246 251 257 269 289 284 272 272 281 297 312 318 324 329 328 328 329 331 337 342 344 349 350 346 342 337 334 334 333 332 333 314 275 252 249 241 225 212 208 210 210 206 204 205 205 202 201 204 208 215 221 220 216 218 220 218 220 228 232 231
142 117 86 113 131 131 135 141 135 138 143 108 129 136 137 144 158 179 211 235 246 261 271 258 243 243 239 233 240 250 271 284 268 253 255 264 285 313 315 315 321 323 323 326 328 329 333 342 351 354 351 345 338 332 329 330 330 334 333 316 282 247 224 214 209 206 206 207 206 203 205 207 205 204 207 211 221 229 225 216 217 221 220 222 230 233 233
106 98 98 120 136 132 132 151 162 178 183 170 166 157 142 134 151 204 241 263 274 273 260 237 224 229 228 225 233 240 258 270 260 252 255 260 279 298 299 302 312 314 317 324 327 326 332 345 352 351 348 343 337 331 325 320 322 332 337 329 306 236 185 191 201 206 202 200 203 206 208 210 209 208 211 218 225 227 221 215 217 222 223 224 228 232 234
128 113 109 127 145 140 155 165 165 161 160 179 197 178 144 145 187 235 245 256 269 273 257 227 207 208 216 220 225 232 246 254 254 257 254 251 259 269 276 294 305 306 311 322 326 331 342 351 350 344 345 343 336 331 325 317 318 331 340 335 299 271 150 160 180 196 202 203 207 210 210 212 214 214 215 219 223 221 216 216 220 222 222 223 225 228 232
146 135 126 121 129 154 166 163 153 143 147 170 191 182 153 156 223 258 251 246 251 254 242 223 211 211 220 222 218 222 237 237 236 244 243 239 242 248 267 297 301 297 301 313 327 337 344 346 344 340 342 342 334 327 321 319 325 332 331 334 312 236 198 158 159 175 188 195 204 211 215 215 215 219 220 217 216 216 216 219 222 220 218 219 224 227 228
165 148 129 105 107 146 155 153 152 150 145 151 164 177 224 289 311 282 247 231 230 235 229 224 225 232 238 228 211 208 219 223 221 222 221 220 223 235 274 296 295 293 297 307 325 338 340 340 338 334 332 333 327 319 315 318 329 344 336 323 328 228 206 196 181 173 172 170 177 194 206 213 214 216 217 212 211 214 216 217 217 213 210 216 225 229 228
165 151 129 110 117 146 155 161 161 147 139 150 170 182 220 295 357 16 215 206 210 225 232 227 232 250 259 238 214 204 206 209 211 214 212 209 212 224 254 275 280 284 289 295 302 318 338 345 335 319 311 310 309 319 338 343 350 13 21 6 325 347 205 214 215 201 197 198 170 170 188 203 207 207 206 204 205 205 203 205 210 213 217 225 231 233 234
136 144 131 111 104 140 161 169 166 150 142 155 162 135 116 81 54 63 76 107 157 212 237 227 239 284 284 239 216 205 200 201 210 223 231 232 223 215 228 249 259 261 261 261 260 269 324 20 12 332 294 204 137 86 36 26 37 47 48 52 61 30 236 213 226 222 219 226 210 184 188 197 201 200 201 202 203 203 203 210 220 228 233 234 235 236 239
121 127 123 109 94 136 164 175 168 153 141 129 117 107 100 90 81 81 87 97 110 117 131 162 197 350 212 204 208 207 205 209 216 234 277 298 291 254 220 230 235 230 225 213 189 168 152 136 115 70 37 78 95 94 95 77 64 64 62 63 70 73 76 169 202 212 211 210 209 204 201 204 208 209 207 207 208 212 218 224 228 231 230 228 227 227 227
126 110 102 101 101 109 123 137 137 130 123 112 101 94 97 100 95 92 97 104 107 106 103 105 104 107 162 190 201 207 219 234 254 284 326 351 348 345 355 210 200 182 167 164 157 144 135 138 147 149 79 7 26 60 81 88 83 79 80 80 79 80 83 90 114 150 163 168 178 189 192 200 208 212 211 212 214 218 221 223 223 219 213 212 213 212 213
119 107 104 107 106 105 110 114 117 118 113 104 97 94 98 99 94 92 92 91 91 89 84 79 80 84 114 200 215 249 306 326 333 338 360 39 44 47 69 83 107 129 126 120 114 114 116 106 109 144 155 47 359 353 17 44 58 64 79 90 88 85 96 106 107 112 123 135 150 163 170 175 182 187 192 199 205 209 213 215 213 208 202 202 204 205 205
106 98 100 107 108 109 112 112 111 110 104 100 101 101 99 95 91 90 87 82 80 78 73 70 71 73 77 77 66 60 56 52 50 51 50 47 43 44 47 49 47 47 51 55 53 50 52 34 22 46 78 59 18 347 338 6 22 16 34 57 60 58 70 91 111 118 123 126 132 143 154 163 169 172 175 178 181 186 193 196 198 199 198 197 198 197 197
107 99 103 112 111 110 110 109 110 108 104 103 103 98 93 91 89 88 85 82 80 78 78 79 81 85 91 89 84 83 78 71 66 62 54 43 34 32 31 28 27 26 24 22 20 19 17 10 356 360 12 8 342 337 330 331 350 354 353 13 32 41 34 23 10 3 8 128 144 150 159 173 182 183 185 189 189 190 193 196 199 202 202 200 198 197 198
107 106 112 116 113 110 108 106 105 103 100 100 97 91 88 88 90 92 92 92 91 90 94 98 96 96 97 92 90 93 91 84 76 61 45 34 23 16 14 13 13 12 8 5 4 4 6 4 355 348 350 345 333 333 339 335 339 344 339 342 350 348 337 327 308 307 308 299 281 249 210 210 215 214 215 218 218 216 218 221 223 223 224 224 223 221 217
104 106 108 111 115 113 109 106 104 100 97 97 94 90 89 88 89 92 97 102 103 104 103 97 88 86 84 74 63 57 53 53 49 25 5 5 2 356 352 350 351 353 352 348 347 346 348 352 347 336 331 329 326 331 339 338 337 343 348 349 347 335 322 312 297 282 275 273 271 263 253 248 244 244 243 240 240 242 239 238 240 241 240 240 239 240 238
108 108 94 93 115 111 104 104 106 103 101 99 96 92 90 89 91 91 93 100 106 107 99 82 69 69 71 62 46 38 34 28 23 18 11 8 6 3 359 357 354 350 347 342 335 331 334 340 336 325 319 318 317 317 320 322 327 336 338 332 324 317 310 306 299 291 283 279 275 270 265 260 255 252 252 248 246 247 244 243 245 246 246 246 245 246 246
117 115 97 103 120 103 92 86 86 88 87 83 82 79 76 80 90 90 85 85 93 100 96 79 63 56 58 59 51 37 30 26 21 18 15 13 13 12 10 10 11 7 359 349 337 330 333 338 331 321 316 316 314 311 308 308 315 324 322 310 299 288 280 277 278 282 283 280 277 273 269 263 259 255 253 252 249 246 244 243 243 243 245 246 247 250 252
122 123 120 117 104 92 85 74 68 70 69 66 69 68 62 62 68 68 64 63 64 68 69 63 52 37 31 37 39 29 21 27 28 20 16 17 17 16 14 14 16 14 6 359 351 346 346 346 336 326 319 315 313 312 311 309 310 311 308 303 296 286 282 280 277 277 279 280 278 273 265 260 257 252 248 246 245 245 246 247 247 248 248 248 249 252 253
121 123 122 109 97 91 89 82 76 74 66 60 66 69 61 55 53 52 53 56 58 61 62 57 46 31 13 12 18 17 21 34 35 25 21 26 26 23 19 15 12 6 1 356 353 350 347 346 342 335 326 321 320 316 311 307 306 304 302 299 291 281 278 279 277 275 277 276 273 271 268 264 259 255 250 247 244 242 243 244 246 248 249 250 250 251 252
117 116 114 104 94 90 88 90 94 87 68 57 65 69 66 63 61 58 59 61 64 71 75 66 52 53 49 30 21 27 33 37 34 27 25 26 25 21 16 11 8 3 356 351 351 351 347 344 345 346 342 338 336 329 321 315 309 302 297 293 287 281 279 280 278 271 268 267 264 264 266 263 260 259 255 251 248 248 247 246 246 246 247 248 249 248 249
87 97 111 113 109 104 100 98 97 88 71 63 64 62 59 61 62 62 59 54 50 53 59 58 54 54 55 54 49 43 38 34 31 31 28 22 15 12 8 5 3 1 355 350 351 352 349 347 351 353 348 345 346 341 337 338 328 308 296 288 284 284 284 282 278 269 258 257 257 258 260 258 254 253 253 251 250 250 251 252 252 250 249 248 248 247 248
79 81 101 125 130 129 121 109 103 100 92 82 71 62 61 59 54 50 48 40 33 34 37 39 44 45 41 41 41 34 28 23 21 25 26 20 12 8 3 359 359 358 355 351 351 350 348 349 352 349 341 341 347 344 336 336 336 321 302 290 285 285 284 280 278 274 268 266 266 262 261 261 257 254 255 256 255 251 250 251 251 250 251 252 252 251 250
122 95 71 90 111 118 115 114 118 123 119 109 97 87 76 57 41 40 42 33 24 19 13 14 22 26 24 27 27 22 16 8 6 13 17 11 6 4 359 357 359 357 353 351 349 347 347 347 344 343 340 340 343 340 331 326 324 320 314 297 281 276 274 273 275 274 271 271 273 266 261 260 258 256 255 257 258 257 256 255 253 251 254 259 256 248 244
137 104 80 79 81 82 85 94 104 111 113 111 110 107 93 67 46 39 36 28 21 8 354 352 353 349 349 359 7 10 8 356 355 4 7 358 353 354 352 354 359 356 353 352 349 345 347 346 342 343 346 342 337 331 323 314 309 310 315 306 281 273 272 271 275 277 274 269 266 262 258 255 255 255 256 257 257 256 255 258 259 255 249 246 238 236 242
118 94 82 78 74 69 66 69 78 92 105 112 120 135 146 145 145 163 298 291 284 299 306 304 307 317 335 355 352 354 357 348 345 352 353 346 343 342 342 346 352 352 349 349 348 348 349 346 341 344 350 348 338 326 315 303 295 296 302 299 277 271 279 280 282 288 287 278 271 267 262 254 252 254 255 255 256 255 251 256 263 262 253 241 235 239 248
109 101 93 89 87 81 74 66 68 92 126 142 166 195 216 220 205 208 232 247 249 257 266 269 282 306 339 354 345 343 344 337 333 335 336 334 333 332 331 336 343 345 343 343 347 351 350 342 339 343 351 352 343 328 317 302 286 285 291 285 249 244 263 283 296 304 301 295 289 283 276 267 257 250 249 250 254 256 250 248 255 261 260 253 246 245 249
119 129 134 141 147 148 145 137 110 23 245 241 237 228 240 279 260 235 244 255 260 278 296 303 317 335 346 343 337 336 335 331 327 325 323 321 320 321 322 327 335 338 336 337 346 352 347 342 344 347 348 348 344 335 324 308 291 290 293 268 224 219 238 270 292 308 309 306 305 302 297 290 276 256 248 248 250 251 248 242 243 248 251 248 246 247 249
152 159 163 163 168 174 170 164 173 218 260 268 268 231 112 322 301 284 272 268 279 307 331 345 348 347 347 344 339 336 333 330 327 323 319 315 313 315 318 324 332 334 330 334 345 348 342 341 347 347 344 343 342 336 327 313 305 309 303 253 221 222 260 285 299 310 310 310 316 318 311 302 291 274 257 249 246 247 248 246 243 245 245 243 242 244 246
187 193 198 188 185 190 190 182 189 202 219 244 259 234 162 280 290 293 295 274 282 306 334 350 349 347 350 348 343 339 336 332 329 327 323 319 317 318 318 321 327 330 327 330 340 344 339 340 344 344 342 342 341 337 330 323 322 324 304 238 227 245 282 297 309 311 309 315 330 333 322 309 300 288 269 253 248 250 253 253 251 251 252 250 247 246 246
200 200 204 196 192 200 209 209 209 214 222 236 249 231 204 245 273 288 302 309 311 328 341 347 348 348 346 342 339 339 338 335 333 331 327 323 322 321 319 320 324 327 328 331 338 344 341 339 341 343 342 341 338 338 340 340 338 335 285 225 242 271 280 286 293 300 308 321 334 336 329 323 315 302 284 268 260 258 258 259 257 256 258 258 253 249 248
208 202 197 183 185 199 214 222 226 227 227 229 233 231 237 252 269 285 298 310 329 340 336 335 339 341 340 339 341 342 342 341 338 335 332 329 325 320 318 318 320 324 330 333 336 342 344 342 342 344 342 337 333 337 347 352 344 328 297 279 282 291 295 295 291 295 306 317 324 327 326 325 322 317 305 287 272 264 263 263 260 257 258 258 253 248 248
216 220 213 192 191 204 217 228 237 237 221 205 204 228 252 265 276 284 290 300 316 326 327 330 334 337 338 338 340 341 340 337 334 332 332 333 329 323 318 314 315 322 329 332 336 343 345 342 342 342 340 334 328 327 331 334 328 314 301 294 289 290 303 310 300 294 300 308 314 317 318 320 324 325 317 295 273 266 269 269 267 263 262 260 256 253 252
210 215 200 194 205 211 207 216 245 248 219 210 215 233 250 262 268 275 286 299 311 322 331 334 333 335 336 335 335 339 341 336 331 330 331 334 335 333 322 311 311 320 329 334 341 342 338 336 340 344 341 334 325 319 318 318 310 300 295 290 286 288 294 296 294 294 299 305 307 307 308 318 331 332 321 300 276 265 268 271 273 275 273 268 264 262 257
206 227 181 178 191 175 136 147 236 274 268 259 248 253 262 260 245 256 287 306 314 320 331 334 331 333 335 333 332 336 338 335 331 328 326 327 332 335 327 314 314 323 331 336 338 334 330 332 340 345 341 334 326 318 312 307 302 300 300 294 288 290 290 291 297 300 295 292 296 300 307 320 331 332 323 307 286 270 269 273 277 281 280 273 266 261 252
211 244 225 179 172 159 160 198 228 248 275 292 285 276 279 275 251 250 289 307 312 319 327 332 332 333 336 336 334 334 333 331 330 326 324 324 327 329 326 320 318 322 328 331 330 329 328 332 337 341 342 340 333 323 314 305 301 303 304 297 286 285 285 290 301 305 292 281 291 300 307 313 317 318 317 309 293 279 275 280 284 286 283 273 261 252 242
211 228 233 197 164 157 179 234 238 231 269 283 278 276 281 290 299 303 302 304 307 315 324 330 333 334 334 333 332 328 326 325 323 320 320 320 318 315 314 313 310 312 317 322 323 327 331 331 332 338 345 346 340 333 329 325 317 312 308 298 286 281 278 279 287 289 281 283 293 299 303 307 307 307 308 303 287 274 275 284 289 288 282 271 258 245 236
230 239 238 211 170 169 204 239 247 233 242 257 267 272 276 281 286 287 290 297 305 316 324 328 329 329 329 328 328 324 323 322 320 317 316 316 314 312 311 309 306 304 304 307 314 323 330 331 332 337 342 344 342 338 336 333 329 323 314 301 289 282 278 276 276 274 272 279 288 292 295 301 307 307 306 301 282 268 274 287 293 289 283 273 260 246 234
250 256 241 198 184 197 210 209 214 236 245 255 269 278 278 280 284 288 292 300 309 318 323 324 323 323 323 323 322 320 317 316 315 313 314 314 312 310 309 306 304 302 299 300 308 317 323 326 330 334 336 336 337 337 335 332 331 329 323 315 308 301 293 289 285 274 265 267 273 277 282 292 302 305 305 304 293 277 279 290 295 293 290 281 265 249 234
257 262 238 200 199 216 204 191 207 242 257 265 274 277 277 282 293 300 306 311 314 317 317 316 316 317 318 319 319 318 316 315 314 311 309 308 305 304 304 303 300 296 292 295 305 314 318 321 326 330 329 326 328 331 333 333 330 327 325 324 322 315 305 300 298 285 267 259 260 266 274 285 294 296 297 298 293 281 283 294 299 300 302 297 280 258 241
260 262 245 219 227 254 234 226 240 263 268 264 265 270 274 278 280 283 292 302 307 309 309 311 315 318 320 323 325 323 321 323 322 316 310 306 303 301 301 303 301 298 296 299 307 315 318 319 323 326 324 319 319 324 329 331 330 327 326 325 321 315 309 310 315 318 305 278 263 261 266 276 286 292 297 303 303 296 297 306 307 308 313 311 295 268 242
253 257 208 124 106 280 274 276 289 311 317 311 306 301 296 291 285 283 289 296 299 302 308 315 323 324 322 324 327 325 323 324 323 318 314 311 307 303 303 305 307 309 310 309 311 315 318 318 320 323 321 315 312 315 321 326 328 326 324 321 318 320 325 324 323 330 338 331 296 272 267 274 283 293 304 311 314 313 312 315 315 316 319 315 298 266 236
251 248 210 186 204 241 262 274 305 30 358 328 309 295 292 293 295 298 298 298 301 308 316 322 323 321 318 319 321 323 323 322 320 317 317 316 310 303 300 299 297 297 301 304 307 311 314 313 314 316 316 311 304 301 304 312 317 319 321 321 320 322 326 321 311 313 323 332 324 298 281 278 280 285 294 304 309 308 302 303 312 317 315 310 295 268 241
239 232 216 204 205 235 265 276 181 196 246 258 264 272 283 293 298 299 299 298 301 310 320 322 319 319 322 322 322 322 325 325 320 316 316 315 307 297 295 300 304 304 301 298 299 303 306 306 306 308 310 308 302 295 291 293 297 300 306 311 314 314 312 303 293 297 307 318 321 306 288 281 281 283 288 296 305 306 298 291 293 296 297 296 290 278 262
222 218 222 215 187 236 271 272 260 252 253 258 264 273 280 283 281 285 297 303 305 312 322 324 318 316 321 324 322 322 325 326 322 318 317 316 310 302 305 315 320 316 305 292 289 293 296 297 299 303 305 305 303 299 295 292 291 289 289 290 294 298 299 296 290 290 297 307 313 304 286 278 276 275 279 287 295 301 300 292 281 274 271 270 268 266 261
194 183 194 206 213 229 252 263 267 267 269 272 275 277 275 274 278 286 297 305 308 313 318 318 315 316 320 323 324 324 325 324 324 323 322 319 313 308 310 315 317 311 300 291 285 283 284 287 292 296 298 300 302 302 299 295 291 287 283 283 283 283 284 286 288 288 290 295 299 297 287 279 276 274 275 279 285 290 292 290 283 275 265 254 249 249 249
217 203 209 220 229 234 241 257 276 288 289 289 289 285 272 267 277 289 299 306 309 308 305 305 307 310 314 318 321 323 323 322 322 322 321 317 312 310 312 314 312 307 304 300 293 284 282 287 292 294 293 294 296 296 294 293 292 290 287 286 286 285 283 282 283 284 285 288 290 290 288 286 286 286 286 285 284 284 286 288 288 283 271 253 241 236 235